Location: Bailleul
(50.3375°N, 2.8513°E)
Time: 14:07:52
(UTC+00:00)

Cosmos 2034 Rocket - Pass Details

Date: 16 June 2021
Orbit: 957 x 1001 km, 82.9° (Epoch: 29 July)

Event Time Altitude Azimuth Distance (km) Brightness Sun altitude
Rises 22:56:38 0° 352° (N) 3,678 8.9 -15.4°
Reaches altitude 10° 22:59:13 10° 356° (N) 2,721 7.7 -15.4°
Maximum altitude 23:05:21 59° 76° (ENE) 1,109 4.3 -15.6°
Enters shadow 23:09:29 21° 149° (SSE) 2,004 5.1 -15.8°
